AD7CQ Weather Reports


Display with metric or nautical units.
time (UTC)temp
F
wind
direction
speed
MPH
gust
MPH
rain 1hr
in
rain 24hr
in
rain mn
in
humidity
%
barometer
mb
20260509001531 81 252 2.0 7.0 0.00 0.00 0.00 16 1010.5
20260509000030 81 251 1.0 6.0 0.00 0.00 0.00 18 1010.5
20260508234529 81 241 1.0 9.0 0.00 0.00 0.00 17 1010.5
20260508233029 81 178 3.0 13.0 0.00 0.00 0.00 19 1010.6
20260508231527 80 178 1.0 9.0 0.00 0.00 0.00 20 1010.7
20260508230039 81 206 3.0 11.0 0.00 0.00 0.00 20 1010.7
20260508224523 80 212 2.0 9.0 0.00 0.00 0.00 22 1010.8
20260508223025 80 283 1.0 8.0 0.00 0.00 0.00 22 1010.8
20260508221521 80 212 1.0 6.0 0.00 0.00 0.00 23 1010.8
20260508220020 80 261 2.0 6.0 0.00 0.00 0.00 23 1010.9
20260508214519 80 187 1.0 11.0 0.00 0.00 0.00 23 1010.9
20260508213018 78 165 1.0 8.0 0.00 0.00 0.00 25 1011.0
20260508211516 78 208 3.0 10.0 0.00 0.00 0.00 26 1011.1
20260508210012 77 197 2.0 7.0 0.00 0.00 0.00 26 1011.0
20260508204508 76 177 2.0 6.0 0.00 0.00 0.00 27 1011.2
20260508203006 75 359 2.0 10.0 0.00 0.00 0.00 26 1011.2
20260508201504 75 205 2.0 6.0 0.00 0.00 0.00 27 1011.2
20260508200004 75 217 1.0 8.0 0.00 0.00 0.00 26 1011.2
20260508194501 75 251 1.0 9.0 0.00 0.00 0.00 26 1011.3
20260508193110 74 175 0.0 5.0 0.00 0.00 0.00 28 1011.2
20260508191557 74 218 1.0 10.0 0.00 0.00 0.00 27 1011.3
20260508184618 74 147 1.0 7.0 0.00 0.00 0.00 31 1011.7
20260508183051 73 179 0.0 7.0 0.00 0.00 0.00 32 1011.8
20260508181559 71 170 1.0 9.0 0.00 0.00 0.00 35 1011.9
20260508180045 70 128 1.0 7.0 0.00 0.00 0.00 35 1012.1
20260508174543 68 135 1.0 7.0 0.00 0.00 0.00 40 1012.2
20260508173038 68 165 1.0 7.0 0.00 0.00 0.00 41 1012.1
20260508171538 68 167 2.0 8.0 0.00 0.00 0.00 38 1012.0
20260508170039 68 194 1.0 11.0 0.00 0.00 0.00 39 1011.8
20260508164532 67 193 0.0 6.0 0.00 0.00 0.00 41 1011.8
20260508163029 66 179 1.0 10.0 0.00 0.00 0.00 43 1011.8
20260508161525 65 174 1.0 5.0 0.00 0.00 0.00 45 1011.8
20260508160022 64 168 0.0 5.0 0.00 0.00 0.00 46 1011.7
20260508154518 63 168 1.0 4.0 0.00 0.00 0.00 47 1011.7
20260508153016 62 175 0.0 2.0 0.00 0.00 0.00 48 1011.5
20260508151515 61 129 1.0 6.0 0.00 0.00 0.00 50 1011.5
20260508150019 61 197 0.0 5.0 0.00 0.00 0.00 49 1011.5
20260508144517 60 182 1.0 7.0 0.00 0.00 0.00 49 1011.5
20260508143008 60 128 1.0 3.0 0.00 0.00 0.00 49 1011.3
20260508141505 60 123 0.0 0.0 0.00 0.00 0.00 49 1011.0
20260508140008 59 122 0.0 1.0 0.00 0.00 0.00 49 1010.9
20260508134503 58 124 0.0 0.0 0.00 0.00 0.00 51 1010.8
20260508133119 57 125 0.0 0.0 0.00 0.00 0.00 53 1010.7
20260508131554 56 124 0.0 0.0 0.00 0.00 0.00 53 1010.6
20260508130051 56 123 0.0 0.0 0.00 0.00 0.00 53 1010.6
20260508124549 55 123 0.0 0.0 0.00 0.00 0.00 53 1010.5
20260508123058 55 124 0.0 0.0 0.00 0.00 0.00 52 1010.4
20260508121546 56 123 0.0 0.0 0.00 0.00 0.00 51 1010.4
20260508120045 56 123 0.0 0.0 0.00 0.00 0.00 50 1010.4
20260508114542 56 123 0.0 0.0 0.00 0.00 0.00 49 1010.3
20260508113055 56 123 0.0 3.0 0.00 0.00 0.00 48 1010.3
20260508111543 57 123 1.0 3.0 0.00 0.00 0.00 47 1010.1
20260508110048 57 124 0.0 3.0 0.00 0.00 0.00 45 1010.0
20260508104537 57 124 0.0 5.0 0.00 0.00 0.00 44 1010.0
20260508103032 58 130 1.0 3.0 0.00 0.00 0.00 43 1009.9
20260508101533 58 125 0.0 3.0 0.00 0.00 0.00 41 1009.9
20260508100030 58 125 0.0 6.0 0.00 0.00 0.00 39 1009.9
20260508094526 58 127 1.0 7.0 0.00 0.00 0.00 37 1009.8
20260508093029 59 125 1.0 4.0 0.00 0.00 0.00 36 1009.7
20260508091523 59 134 1.0 5.0 0.00 0.00 0.00 34 1009.8
20260508090026 60 123 1.0 4.0 0.00 0.00 0.00 32 1009.8
20260508084519 61 136 1.0 8.0 0.00 0.00 0.00 29 1009.8
20260508083016 61 128 1.0 3.0 0.00 0.00 0.00 28 1009.7
20260508081514 62 131 1.0 4.0 0.00 0.00 0.00 28 1009.7
20260508080015 62 133 0.0 1.0 0.00 0.00 0.00 29 1009.7
20260508074518 62 135 0.0 0.0 0.00 0.00 0.00 31 1009.7
20260508073006 63 135 0.0 0.0 0.00 0.00 0.00 30 1009.7
20260508071505 64 135 0.0 0.0 0.00 0.00 0.00 30 1009.5
20260508070002 64 135 0.0 0.0 0.00 0.00 0.00 30 1009.4
20260508064501 65 135 0.0 2.0 0.00 0.00 0.00 28 1009.4
20260508063100 66 144 1.0 9.0 0.00 0.00 0.00 28 1009.4
20260508061559 66 141 1.0 9.0 0.00 0.00 0.00 29 1009.3
20260508060058 67 112 1.0 3.0 0.00 0.00 0.00 32 1009.1
20260508054557 67 112 0.0 2.0 0.00 0.00 0.00 34 1009.2
20260508053119 67 112 0.0 2.0 0.00 0.00 0.00 34 1009.1
20260508051556 68 112 0.0 0.0 0.00 0.00 0.00 36 1009.0
20260508050055 68 112 0.0 0.0 0.00 0.00 0.00 38 1009.0
20260508044557 68 112 0.0 0.0 0.00 0.00 0.00 40 1008.9
20260508043103 68 112 0.0 0.0 0.00 0.00 0.00 39 1008.9
20260508041615 69 112 0.0 0.0 0.00 0.00 0.00 37 1009.0
20260508040110 71 112 0.0 0.0 0.00 0.00 0.00 35 1008.9
20260508034553 72 112 0.0 0.0 0.00 0.00 0.00 32 1008.7
20260508033052 72 112 0.0 0.0 0.00 0.00 0.00 29 1008.7
20260508031554 73 112 0.0 2.0 0.00 0.00 0.00 27 1008.7
20260508030052 74 112 0.0 3.0 0.00 0.00 0.00 26 1008.7
20260508024603 75 113 0.0 2.0 0.00 0.00 0.00 25 1008.7
20260508023051 76 112 0.0 2.0 0.00 0.00 0.00 25 1008.6
20260508021548 77 112 1.0 4.0 0.00 0.00 0.00 24 1008.6
20260508020050 79 118 1.0 4.0 0.00 0.00 0.00 23 1008.7
20260508014546 80 118 0.0 4.0 0.00 0.00 0.00 23 1008.8
20260508013044 80 119 0.0 0.0 0.00 0.00 0.00 22 1008.7
20260508011551 81 119 0.0 0.0 0.00 0.00 0.00 22 1008.8
20260508010040 81 120 0.0 2.0 0.00 0.00 0.00 23 1008.9
20260508004542 81 118 0.0 4.0 0.00 0.00 0.00 22 1009.1
20260508003039 82 120 0.0 3.0 0.00 0.00 0.00 23 1009.1